Wind_Speed
50 50 49 47 47 46 46 46 45 43 42 41 41 41 41 41 40 38 38 37 36 35 34 34 33 33 32 32 31 31 30 30 29 28 27 27 27 27
49 48 47 47 47 46 46 45 43 43 42 42 41 40 41 40 38 38 37 36 35 34 34 33 33 32 31 31 31 31 30 30 30 29 29 28 28 28
48 47 47 47 46 45 44 44 43 43 42 42 42 40 40 38 38 37 36 35 34 33 33 33 32 31 31 31 31 31 31 31 31 30 30 30 31 31
48 47 47 46 46 45 44 43 43 42 42 41 40 39 38 37 36 36 35 34 33 33 33 32 32 32 31 31 31 31 31 31 32 32 32 32 33 33
47 46 45 45 44 43 43 43 42 41 40 39 39 38 37 36 35 34 34 33 32 32 32 32 32 32 32 32 32 32 33 33 33 34 34 35 35 35
46 45 44 43 43 42 42 41 40 39 38 38 38 37 36 35 34 33 33 33 32 32 32 32 32 32 32 33 33 34 34 35 35 36 36 36 37 37
45 44 43 42 41 41 40 39 39 38 38 37 37 35 34 33 33 33 33 33 33 32 32 32 33 33 34 34 35 35 36 36 37 37 38 38 38 38
43 42 41 40 40 39 39 38 38 37 37 36 35 34 33 33 33 33 33 33 33 33 33 33 34 34 35 35 36 36 37 37 38 39 39 40 40 41
40 40 39 39 38 38 38 37 37 36 35 35 34 33 33 33 33 33 33 33 33 33 33 34 35 35 36 36 37 37 38 39 39 40 41 41 42 43
39 39 38 38 38 38 37 36 35 35 34 34 33 33 33 33 33 33 33 33 33 34 34 35 35 36 37 37 38 39 39 40 41 41 42 42 43 44
38 38 37 37 37 36 35 35 34 34 33 33 32 32 33 33 33 33 33 33 34 35 35 36 36 37 38 39 39 40 40 41 41 42 43 43 43 44
37 36 36 36 36 35 34 34 33 33 32 32 32 32 33 33 33 33 33 34 35 36 36 36 37 38 39 40 41 41 41 41 42 43 43 44 44 43
35 35 35 35 34 34 33 32 32 32 31 31 31 32 33 33 33 34 34 35 36 36 37 38 38 39 40 41 41 42 42 42 43 44 44 44 43 43
34 34 33 33 33 32 31 31 31 31 31 31 32 32 33 33 34 35 35 36 37 37 38 39 39 40 40 41 41 42 43 43 43 43 43 43 43 42
33 33 33 32 32 31 30 30 31 31 31 32 32 33 33 34 35 36 37 38 38 39 39 39 40 41 41 41 41 43 43 44 44 43 43 42 42 41
32 32 32 31 31 31 31 31 31 31 32 32 33 33 34 35 36 37 38 38 39 39 40 40 40 41 41 42 43 43 44 43 43 42 42 42 41 41
30 31 31 31 31 31 31 31 31 32 32 33 33 34 35 36 37 38 38 38 39 40 40 41 41 41 42 42 43 44 44 43 42 41 41 41 41 41
30 31 31 31 31 31 31 32 32 33 33 34 35 35 36 37 38 38 39 39 40 40 40 41 41 41 42 43 43 44 44 42 42 41 41 40 40 41
30 30 30 31 31 32 32 33 33 34 35 35 36 37 37 38 39 39 40 40 40 40 41 41 41 41 42 43 43 44 43 42 42 41 41 40 40 40
30 30 31 31 32 32 33 34 35 35 36 37 37 38 38 39 39 40 40 40 40 41 41 41 41 42 42 42 42 44 44 42 42 42 41 41 40 40
31 31 32 32 33 33 34 35 36 37 37 38 38 39 39 39 40 40 41 41 41 41 41 42 42 42 42 42 42 43 44 43 43 42 41 40 39 39
32 32 33 34 34 35 36 36 37 37 38 38 39 40 40 41 41 41 42 42 42 42 42 42 43 43 42 42 42 42 43 44 43 42 41 40 38 36
33 34 34 35 36 36 36 37 38 38 39 39 40 41 41 42 42 42 42 43 42 42 42 42 43 43 43 43 42 42 42 43 43 42 42 41 39 36
Wind_Direction
281 282 282 282 284 286 288 289 290 290 290 291 293 294 295 296 297 297 297 297 297 297 298 298 299 299 299 299 299 299 298 298 298 298 296 295 293 291
279 279 280 281 283 285 286 287 288 288 289 291 292 293 294 295 295 296 296 296 296 297 297 298 299 299 299 299 299 299 298 299 298 296 295 294 293 292
278 279 280 282 283 283 284 285 286 287 289 290 291 291 293 293 294 294 294 295 296 296 297 298 298 298 298 298 298 298 298 298 298 297 294 293 292 291
278 279 280 281 281 281 282 283 284 286 287 289 289 291 291 292 293 293 294 295 295 296 297 297 297 297 297 297 297 297 298 297 297 296 295 293 292 291
278 279 280 280 280 280 281 281 282 284 286 287 288 289 290 291 292 292 293 294 294 295 296 296 296 296 296 297 297 297 297 297 296 295 294 293 292 290
278 278 279 279 279 279 279 280 281 283 284 286 287 289 289 289 290 292 292 293 294 295 295 296 296 296 296 297 297 297 297 296 296 296 295 294 292 290
276 277 277 276 277 277 278 279 280 281 282 284 286 287 287 288 289 290 292 293 294 295 295 295 296 296 296 297 297 297 297 297 297 297 296 294 293 291
275 274 274 274 276 277 277 278 280 280 281 283 284 285 286 288 289 290 292 292 293 294 294 295 295 296 296 297 297 297 297 297 297 297 296 294 293 291
273 273 272 273 274 275 276 277 279 280 281 282 283 284 285 287 288 290 290 291 292 293 294 295 295 295 297 297 298 298 298 298 298 298 297 295 294 292
272 272 273 273 274 275 276 277 278 279 280 281 282 283 284 286 288 289 290 291 292 293 294 294 295 295 296 297 298 299 299 299 299 298 298 297 295 293
271 271 272 273 273 274 275 276 277 278 279 280 281 282 285 287 288 289 290 291 292 294 294 294 295 296 296 297 298 299 300 300 300 299 299 298 297 295
271 271 272 272 273 274 274 275 276 277 278 279 281 283 285 287 288 289 290 291 293 294 294 295 295 296 297 298 299 300 301 301 301 301 300 299 297 296
270 271 271 272 273 272 273 273 275 276 277 279 281 283 285 287 288 289 291 292 294 294 295 296 296 297 298 299 299 300 301 302 302 302 301 300 298 297
269 270 270 271 271 271 272 273 274 276 277 279 281 284 286 287 289 290 292 293 294 295 296 296 297 298 298 299 300 301 302 303 303 303 303 302 300 298
269 269 270 270 270 270 271 273 275 276 278 279 282 284 286 289 290 292 293 294 295 296 296 297 298 298 299 299 300 301 302 304 304 304 304 303 301 299
269 269 269 269 269 270 271 273 275 276 278 280 282 285 288 290 292 293 294 295 296 297 297 298 298 299 300 300 301 302 303 304 305 305 304 304 303 302
268 268 268 268 269 271 272 273 274 276 278 280 283 287 289 291 292 294 295 296 296 297 297 298 299 300 301 301 302 302 303 304 305 304 304 304 304 304
268 268 268 269 270 271 273 274 275 277 279 281 284 287 290 291 292 294 295 296 297 297 298 299 300 301 302 303 303 303 303 304 304 305 304 304 304 304
270 269 269 270 272 273 274 275 276 278 281 283 285 288 290 292 293 294 295 296 297 297 298 299 300 301 302 303 303 303 304 304 304 305 305 305 304 303
271 271 271 272 273 274 275 276 278 280 282 284 286 288 290 292 293 294 295 296 297 298 298 299 301 302 303 303 302 302 304 304 304 305 305 305 304 303
271 271 272 273 273 275 276 277 279 281 283 285 286 288 290 291 293 294 295 296 297 297 298 299 301 302 303 303 302 302 302 303 305 305 304 304 304 303
273 273 274 274 275 276 277 278 280 282 283 285 286 288 290 291 292 294 295 296 297 297 298 299 300 301 302 303 303 302 302 303 305 306 305 304 305 303
273 274 275 276 277 277 278 279 281 282 283 284 286 288 290 291 292 293 294 295 296 297 297 299 300 301 302 302 302 302 302 303 304 305 305 305 305 303
Height
5767 5766 5765 5764 5762 5760 5758 5757 5755 5753 5751 5749 5746 5743 5740 5738 5735 5732 5730 5727 5724 5721 5719 5716 5714 5711 5708 5706 5704 5701 5699 5697 5694 5692 5690 5688 5687 5685
5756 5755 5754 5753 5751 5750 5748 5746 5744 5743 5741 5739 5736 5734 5731 5728 5726 5723 5721 5718 5715 5713 5710 5708 5706 5703 5701 5698 5696 5694 5691 5689 5687 5684 5682 5681 5679 5678
5744 5743 5742 5741 5740 5739 5737 5736 5734 5732 5731 5729 5726 5724 5721 5719 5717 5714 5712 5709 5707 5704 5702 5700 5697 5695 5693 5690 5688 5686 5683 5681 5679 5676 5674 5673 5671 5669
5733 5732 5731 5730 5729 5727 5726 5725 5723 5722 5720 5719 5716 5714 5712 5710 5707 5705 5703 5700 5698 5696 5694 5691 5689 5687 5684 5682 5680 5677 5675 5673 5670 5668 5666 5664 5662 5660
5721 5720 5719 5718 5717 5716 5715 5714 5713 5711 5710 5709 5707 5705 5702 5700 5698 5696 5694 5692 5689 5687 5685 5683 5680 5678 5676 5674 5671 5669 5666 5664 5661 5659 5656 5654 5652 5650
5709 5708 5708 5707 5706 5705 5704 5703 5702 5701 5700 5699 5697 5695 5693 5691 5689 5687 5685 5683 5681 5679 5676 5674 5672 5669 5667 5665 5662 5660 5657 5654 5652 5649 5646 5644 5641 5639
5697 5697 5696 5696 5695 5694 5693 5693 5692 5691 5690 5689 5687 5685 5684 5682 5680 5678 5676 5674 5672 5670 5668 5665 5663 5661 5658 5655 5653 5650 5647 5644 5641 5638 5635 5632 5630 5627
5686 5685 5685 5684 5684 5683 5683 5682 5682 5681 5680 5679 5678 5676 5674 5673 5671 5669 5668 5666 5663 5661 5659 5656 5654 5651 5648 5646 5643 5640 5637 5634 5630 5627 5624 5621 5618 5615
5675 5674 5674 5674 5673 5673 5673 5672 5671 5671 5670 5669 5668 5667 5665 5664 5662 5660 5658 5656 5654 5652 5649 5647 5644 5641 5639 5635 5632 5629 5626 5622 5619 5615 5612 5608 5605 5602
5664 5664 5664 5663 5663 5663 5662 5662 5662 5661 5660 5659 5658 5657 5656 5654 5652 5651 5649 5647 5645 5642 5640 5637 5634 5631 5628 5625 5622 5618 5615 5611 5607 5603 5599 5595 5592 5588
5653 5653 5653 5653 5653 5653 5652 5652 5652 5651 5650 5649 5648 5647 5646 5644 5643 5641 5639 5637 5635 5633 5630 5627 5624 5621 5618 5614 5611 5607 5603 5599 5595 5591 5586 5582 5578 5574
5643 5643 5643 5643 5643 5642 5642 5642 5642 5641 5641 5640 5639 5638 5636 5635 5633 5632 5630 5628 5625 5623 5619 5617 5613 5610 5607 5603 5599 5595 5591 5587 5583 5578 5573 5569 5564 5560
5633 5633 5633 5633 5633 5633 5633 5632 5632 5632 5631 5630 5630 5628 5627 5625 5624 5622 5620 5617 5615 5612 5609 5606 5602 5599 5595 5591 5587 5583 5579 5574 5570 5565 5560 5555 5550 5546
5623 5623 5623 5623 5623 5623 5623 5623 5623 5622 5622 5621 5620 5619 5617 5616 5614 5611 5609 5606 5604 5601 5598 5594 5591 5587 5584 5579 5575 5571 5566 5562 5557 5552 5546 5541 5536 5532
5613 5613 5614 5614 5614 5614 5614 5614 5613 5613 5612 5612 5611 5609 5608 5606 5603 5601 5598 5595 5592 5589 5586 5583 5579 5575 5572 5568 5563 5558 5554 5549 5544 5539 5533 5528 5523 5518
5604 5604 5604 5604 5604 5604 5604 5604 5604 5604 5603 5602 5601 5599 5597 5595 5593 5591 5588 5585 5581 5578 5575 5571 5567 5563 5559 5555 5551 5546 5542 5537 5532 5527 5521 5515 5510 5506
5595 5595 5595 5595 5595 5595 5595 5595 5594 5594 5593 5592 5591 5589 5587 5585 5582 5580 5577 5574 5570 5566 5563 5559 5555 5551 5547 5543 5538 5533 5529 5524 5520 5515 5509 5504 5498 5493
5586 5586 5586 5586 5586 5586 5586 5585 5585 5584 5583 5582 5581 5579 5577 5574 5571 5569 5566 5562 5559 5555 5551 5547 5544 5540 5535 5530 5526 5521 5516 5512 5507 5502 5498 5493 5487 5481
5577 5577 5577 5577 5576 5576 5576 5575 5575 5574 5573 5571 5570 5568 5566 5563 5560 5557 5554 5551 5547 5543 5540 5536 5532 5528 5524 5518 5512 5508 5504 5499 5495 5490 5485 5481 5476 5470
5568 5567 5567 5567 5567 5566 5566 5565 5564 5563 5562 5560 5558 5556 5554 5552 5549 5546 5542 5539 5535 5532 5528 5524 5520 5516 5512 5507 5501 5495 5491 5487 5483 5478 5473 5469 5464 5458
5558 5558 5557 5557 5556 5556 5555 5554 5553 5552 5551 5549 5547 5545 5542 5540 5537 5534 5530 5527 5523 5520 5516 5512 5508 5504 5499 5495 5490 5484 5478 5474 5470 5466 5461 5457 5452 5446
5548 5547 5547 5547 5546 5545 5544 5543 5542 5541 5539 5537 5535 5533 5530 5527 5525 5521 5518 5515 5511 5507 5504 5499 5495 5491 5487 5483 5478 5473 5467 5461 5457 5453 5448 5444 5440 5436
5537 5537 5536 5536 5535 5534 5533 5532 5530 5529 5527 5525 5523 5520 5518 5515 5512 5509 5506 5502 5499 5495 5491 5487 5482 5478 5474 5470 5465 5461 5455 5450 5445 5441 5435 5430 5427 5424